Home   Weather   Berlevåg   Past weeks
Flag for Norway

Past Weather in Berlevåg, Norway — Yesterday and Last 2 Weeks

Now
47 °F

Cool.


Feels Like: 47 °F
Forecast: 45 / 44 °F
Wind: 1 mph from Southeast

Location: Berlevag

Current Time: Jul 16, 2019 at 4:25:49 am

Latest Report: Jul 16, 2019 at 3:00 am


Visibility: N/A

Pressure: 30.03 "Hg

Humidity: 81%

Dew Point: 41 °F

Location of BerlevågLocation

Past Weather in Berlevåg — Graph

°F

Berlevåg Temperature Yesterday

Maximum temperature yesterday: 50 °F (at 10:00 am)
Minimum temperature yesterday: 44 °F (at 2:00 am)
Average temperature yesterday: 47 °F

High & Low Weather Summary for the Past Weeks

 TemperatureHumidityPressure
High56 °F (Jul 1, 11:00 am)99% (Jul 3, 4:00 am)30.20 "Hg (Jul 3, 4:00 am)
Low41 °F (Jul 12, 1:00 am)47% (Jul 1, 3:00 pm)29.38 "Hg (Jul 1, 10:00 pm)
Average46 °F86%29.88 "Hg
* Reported Jul 1 3:00 am — Jul 16 3:00 am, Berlevåg. Weather by CustomWeather, © 2019

Note: Actual official high and low records may vary slightly from our data, if they occured in-between our weather recording intervals... More about our weather records

Advertising

Berlevåg Weather History for the Previous 24 Hours

Scroll right to see more
 ConditionsComfort  
Time TempWeatherWind HumidityBarometerVisibility
3:00 am
Tue, Jul 16
47 °FCool.1 mph81%30.03 "HgN/A
2:00 am46 °FCool.3 mph84%30.03 "HgN/A
1:00 am46 °FCool.1 mph78%30.02 "HgN/A
12:00 am45 °FCool.1 mph79%30.02 "HgN/A
11:00 pm
Mon, Jul 15
48 °FCool.3 mph83%30.01 "HgN/A
10:00 pm47 °FCool.6 mph87%30.01 "HgN/A
9:00 pm47 °FCool.6 mph84%30.00 "HgN/A
8:00 pm47 °FCool.6 mph81%30.00 "HgN/A
7:00 pm49 °FCool.7 mph76%30.00 "HgN/A
6:00 pm49 °FCool.6 mph73%30.00 "HgN/A
5:00 pm48 °FCool.6 mph76%29.99 "HgN/A
4:00 pm49 °FCool.5 mph74%29.99 "HgN/A
3:00 pm49 °FCool.6 mph71%29.99 "HgN/A
2:00 pm48 °FCool.5 mph74%29.99 "HgN/A
1:00 pm48 °FCool.3 mph74%29.98 "HgN/A
12:00 pm50 °FCool.3 mph69%29.98 "HgN/A
11:00 am49 °FCool.3 mph75%29.98 "HgN/A
10:00 am50 °FCool.2 mph75%29.98 "HgN/A
9:00 am46 °FCool.5 mph85%29.97 "HgN/A
8:00 am47 °FCool.3 mph77%29.97 "HgN/A
7:00 am47 °FCool.2 mph75%29.97 "HgN/A
6:00 am45 °FCool.3 mph84%29.97 "HgN/A
5:00 am46 °FCool.3 mph77%29.97 "HgN/A
4:00 am45 °FCool.3 mph84%29.98 "HgN/A
Weather by CustomWeather, © 2019

See weather overview

LIVE PARTIAL LUNAR ECLIPSE – Watch the eclipse as it happens